KI5MVM Weather Reports


time (UTC)temp
C
wind
direction
speed
KPH
gust
KPH
rain 1hr
cm
rain 24hr
cm
rain mn
cm
humidity
%
barometer
mb
20260504204641 26 255 3.2 8.0 0.00 0.00 0.00 39 1015.0
20260504204139 26 267 1.6 6.4 0.00 0.00 0.00 40 1015.0
20260504203639 26 233 4.8 9.7 0.00 0.00 0.00 39 1015.0
20260504203142 26 244 3.2 6.4 0.00 0.00 0.00 39 1015.0
20260504202641 26 241 3.2 8.0 0.00 0.00 0.00 40 1015.0
20260504202140 26 239 3.2 6.4 0.00 0.00 0.00 40 1015.0
20260504201640 26 228 4.8 9.7 0.00 0.00 0.00 39 1016.0
20260504201141 26 238 3.2 8.0 0.00 0.00 0.00 37 1016.0
20260504200641 26 233 4.8 9.7 0.00 0.00 0.00 39 1016.0
20260504200145 26 246 3.2 4.8 0.00 0.00 0.00 37 1016.0
20260504195641 26 247 4.8 8.0 0.00 0.00 0.00 36 1016.0
20260504195140 26 257 1.6 3.2 0.00 0.00 0.00 36 1016.0
20260504194641 26 239 3.2 9.7 0.00 0.00 0.00 37 1016.0
20260504194141 26 257 3.2 9.7 0.00 0.00 0.00 37 1016.0
20260504193640 26 232 3.2 6.4 0.00 0.00 0.00 39 1016.0
20260504193143 26 249 1.6 4.8 0.00 0.00 0.00 40 1016.0
20260504192641 26 226 4.8 8.0 0.00 0.00 0.00 39 1016.0
20260504192140 26 231 3.2 8.0 0.00 0.00 0.00 40 1017.0
20260504191640 26 196 4.8 9.7 0.00 0.00 0.00 40 1016.0
20260504191144 25 233 3.2 8.0 0.00 0.00 0.00 41 1016.0
20260504190641 26 230 4.8 9.7 0.00 0.00 0.00 40 1016.0
20260504190139 26 252 1.6 3.2 0.00 0.00 0.00 42 1017.0
20260504185641 26 245 4.8 9.7 0.00 0.00 0.00 41 1017.0
20260504185141 26 218 1.6 4.8 0.00 0.00 0.00 41 1017.0
20260504184640 26 247 6.4 11.3 0.00 0.00 0.00 41 1017.0
20260504184139 26 266 1.6 3.2 0.00 0.00 0.00 40 1017.0
20260504183642 26 168 1.6 4.8 0.00 0.00 0.00 43 1017.0
20260504183144 26 90 3.2 6.4 0.00 0.00 0.00 45 1017.0
20260504182641 25 282 1.6 3.2 0.00 0.00 0.00 43 1017.0
20260504182142 25 338 1.6 4.8 0.00 0.00 0.00 47 1017.0
20260504181642 24 129 1.6 6.4 0.00 0.00 0.00 55 1017.0
20260504181142 24 21 3.2 4.8 0.00 0.00 0.00 54 1017.0
20260504180641 24 19 3.2 9.7 0.00 0.00 0.00 56 1017.0
20260504180143 24 3 3.2 8.0 0.00 0.00 0.00 54 1017.0
20260504175641 24 24 3.2 4.8 0.00 0.00 0.00 54 1017.0
20260504175141 23 33 3.2 6.4 0.00 0.00 0.00 57 1017.0
20260504174645 23 5 3.2 6.4 0.00 0.00 0.00 57 1017.0
20260504174141 24 41 8.0 12.9 0.00 0.00 0.00 57 1017.0
20260504173643 24 23 6.4 9.7 0.00 0.00 0.00 56 1017.0
20260504173140 24 39 3.2 6.4 0.00 0.00 0.00 55 1017.0
20260504172641 23 347 1.6 4.8 0.00 0.00 0.00 56 1017.0
20260504172143 23 22 6.4 9.7 0.00 0.00 0.00 56 1017.0
20260504171641 24 13 4.8 6.4 0.00 0.00 0.00 56 1017.0
20260504171141 24 47 3.2 6.4 0.00 0.00 0.00 55 1017.0
20260504170642 24 43 4.8 8.0 0.00 0.00 0.00 55 1017.0
20260504170142 23 16 1.6 3.2 0.00 0.00 0.00 53 1017.0
20260504160140 23 20 4.8 8.0 0.00 0.00 0.00 61 1018.0
20260504151141 22 36 4.8 8.0 0.00 0.00 0.00 62 1018.0
20260504150643 22 22 4.8 8.0 0.00 0.00 0.00 62 1018.0
20260504150142 22 15 6.4 9.7 0.00 0.00 0.00 61 1018.0
20260504141141 21 48 6.4 9.7 0.00 0.00 0.00 63 1018.0
20260504140642 21 45 4.8 8.0 0.00 0.00 0.00 63 1018.0
20260504140142 22 23 4.8 8.0 0.00 0.00 0.00 62 1018.0
20260504130642 20 347 1.6 3.2 0.00 0.00 0.00 66 1018.0
20260504130143 20 343 1.6 3.2 0.00 0.00 0.00 67 1018.0
20260504120142 13 318 0.0 0.0 0.00 0.00 0.00 87 1018.0
20260504110641 14 290 0.0 0.0 0.00 0.00 0.00 81 1017.0
20260504110139 14 293 0.0 0.0 0.00 0.00 0.00 80 1017.0
20260504100142 15 252 1.6 3.2 0.00 0.00 0.00 78 1018.0
20260504090141 15 248 1.6 3.2 0.00 0.00 0.00 77 1018.0
20260504081642 16 270 0.0 1.6 0.00 0.00 0.00 73 1017.0
20260504081141 16 264 0.0 1.6 0.00 0.00 0.00 72 1017.0
20260504080642 16 288 0.0 1.6 0.00 0.00 0.00 72 1017.0
20260504080140 16 271 0.0 3.2 0.00 0.00 0.00 72 1017.0
20260504070141 16 248 1.6 3.2 0.00 0.00 0.00 70 1018.0
20260504060141 17 299 0.0 1.6 0.00 0.00 0.00 68 1019.0
20260504050639 18 247 1.6 4.8 0.00 0.00 0.00 64 1019.0
20260504050140 18 223 3.2 4.8 0.00 0.00 0.00 64 1019.0
20260504045641 18 307 0.0 0.0 0.00 0.00 0.00 64 1019.0
20260504045139 18 237 1.6 3.2 0.00 0.00 0.00 63 1019.0
20260504044640 18 277 0.0 3.2 0.00 0.00 0.00 63 1019.0
20260504044139 18 247 0.0 3.2 0.00 0.00 0.00 62 1019.0
20260504043639 18 284 0.0 1.6 0.00 0.00 0.00 62 1019.0
20260504043139 18 231 1.6 3.2 0.00 0.00 0.00 62 1019.0
20260504042639 18 236 3.2 3.2 0.00 0.00 0.00 61 1019.0
20260504042139 18 221 3.2 4.8 0.00 0.00 0.00 61 1019.0
20260504041641 18 276 1.6 3.2 0.00 0.00 0.00 60 1019.0
20260504041140 19 274 0.0 3.2 0.00 0.00 0.00 60 1019.0
20260504040639 19 268 0.0 3.2 0.00 0.00 0.00 60 1019.0
20260504040139 19 241 3.2 6.4 0.00 0.00 0.00 59 1019.0
20260504035640 19 254 3.2 4.8 0.00 0.00 0.00 59 1019.0
20260504035140 19 252 1.6 4.8 0.00 0.00 0.00 59 1019.0
20260504034640 19 263 1.6 4.8 0.00 0.00 0.00 59 1019.0
20260504034140 18 228 3.2 6.4 0.00 0.00 0.00 60 1019.0
20260504033639 18 259 1.6 1.6 0.00 0.00 0.00 59 1019.0
20260504033139 18 248 1.6 3.2 0.00 0.00 0.00 61 1019.0
20260504032639 18 301 0.0 1.6 0.00 0.00 0.00 61 1019.0
20260504032140 19 282 0.0 1.6 0.00 0.00 0.00 60 1019.0
20260504031639 19 285 0.0 3.2 0.00 0.00 0.00 59 1019.0
20260504031141 19 289 0.0 1.6 0.00 0.00 0.00 58 1019.0
20260504030639 19 246 0.0 1.6 0.00 0.00 0.00 57 1019.0
20260504030140 19 280 0.0 3.2 0.00 0.00 0.00 57 1019.0
20260504025640 20 0 0.0 0.0 0.00 0.00 0.00 56 1019.0
20260504025139 20 266 0.0 1.6 0.00 0.00 0.00 55 1019.0
20260504024639 20 0 0.0 0.0 0.00 0.00 0.00 55 1019.0
20260504024139 20 290 0.0 1.6 0.00 0.00 0.00 54 1019.0
20260504023640 20 289 0.0 1.6 0.00 0.00 0.00 54 1019.0
20260504023140 20 297 0.0 1.6 0.00 0.00 0.00 53 1019.0
20260504022639 20 242 0.0 1.6 0.00 0.00 0.00 53 1019.0
20260504022139 20 263 1.6 1.6 0.00 0.00 0.00 54 1019.0
20260504021639 20 306 0.0 1.6 0.00 0.00 0.00 53 1019.0
20260504021139 20 305 0.0 1.6 0.00 0.00 0.00 53 1019.0
20260504020639 20 341 0.0 3.2 0.00 0.00 0.00 52 1019.0
20260504020140 20 306 0.0 1.6 0.00 0.00 0.00 53 1019.0
20260504015640 20 292 0.0 0.0 0.00 0.00 0.00 54 1018.0
20260504015140 19 0 0.0 0.0 0.00 0.00 0.00 54 1018.0
20260504014641 19 316 0.0 0.0 0.00 0.00 0.00 57 1018.0
20260504014140 19 0 0.0 0.0 0.00 0.00 0.00 60 1018.0
20260504013640 19 0 0.0 0.0 0.00 0.00 0.00 58 1018.0
20260504013140 20 327 0.0 1.6 0.00 0.00 0.00 56 1018.0
20260504012640 20 0 0.0 0.0 0.00 0.00 0.00 56 1018.0
20260504012139 20 320 0.0 1.6 0.00 0.00 0.00 55 1018.0
20260504011639 20 0 0.0 0.0 0.00 0.00 0.00 56 1018.0
20260504011140 21 0 0.0 0.0 0.00 0.00 0.00 54 1018.0
20260504010640 21 0 0.0 0.0 0.00 0.00 0.00 53 1018.0
20260504010139 21 305 0.0 0.0 0.00 0.00 0.00 52 1018.0
20260504005639 21 0 0.0 0.0 0.00 0.00 0.00 51 1018.0
20260504005139 21 0 0.0 0.0 0.00 0.00 0.00 50 1018.0
20260504004640 21 0 0.0 0.0 0.00 0.00 0.00 49 1018.0
20260504004139 22 341 0.0 1.6 0.00 0.00 0.00 48 1018.0
20260504003639 22 332 0.0 1.6 0.00 0.00 0.00 48 1018.0
20260504003140 22 330 0.0 1.6 0.00 0.00 0.00 45 1018.0
20260504002641 22 327 0.0 3.2 0.00 0.00 0.00 45 1018.0
20260504002139 22 0 0.0 0.0 0.00 0.00 0.00 46 1018.0
20260504001639 22 337 0.0 3.2 0.00 0.00 0.00 45 1018.0
20260504001140 22 0 0.0 0.0 0.00 0.00 0.00 45 1018.0
20260504000639 23 320 0.0 1.6 0.00 0.00 0.00 43 1018.0
20260504000139 23 333 0.0 1.6 0.00 0.00 0.00 43 1018.0
20260503235639 23 354 0.0 1.6 0.00 0.00 0.00 43 1018.0
20260503235140 23 2 1.6 1.6 0.00 0.00 0.00 42 1018.0
20260503234639 23 316 1.6 3.2 0.00 0.00 0.00 41 1018.0
20260503234139 23 283 1.6 3.2 0.00 0.00 0.00 41 1018.0
20260503233639 24 299 0.0 1.6 0.00 0.00 0.00 40 1018.0
20260503233140 25 304 1.6 3.2 0.00 0.00 0.00 39 1018.0
20260503232639 25 358 1.6 4.8 0.00 0.00 0.00 38 1018.0
20260503232139 25 14 3.2 4.8 0.00 0.00 0.00 37 1018.0
20260503231639 25 357 1.6 6.4 0.00 0.00 0.00 36 1018.0
20260503231140 26 330 0.0 1.6 0.00 0.00 0.00 37 1018.0
20260503230639 26 42 3.2 6.4 0.00 0.00 0.00 37 1018.0
20260503230142 26 328 1.6 4.8 0.00 0.00 0.00 36 1018.0
20260503225639 26 349 1.6 3.2 0.00 0.00 0.00 36 1018.0
20260503225139 26 338 1.6 4.8 0.00 0.00 0.00 36 1018.0
20260503224640 26 281 0.0 3.2 0.00 0.00 0.00 36 1018.0
20260503224139 26 322 0.0 3.2 0.00 0.00 0.00 36 1018.0
20260503223639 26 352 0.0 3.2 0.00 0.00 0.00 36 1018.0
20260503223139 26 35 3.2 6.4 0.00 0.00 0.00 38 1018.0
20260503222639 26 60 1.6 4.8 0.00 0.00 0.00 37 1018.0
20260503222139 26 356 1.6 3.2 0.00 0.00 0.00 36 1018.0
20260503221639 26 304 3.2 6.4 0.00 0.00 0.00 35 1018.0
20260503221143 26 351 1.6 3.2 0.00 0.00 0.00 36 1018.0
20260503220639 26 1 1.6 3.2 0.00 0.00 0.00 36 1018.0
20260503220140 26 350 0.0 3.2 0.00 0.00 0.00 37 1019.0
20260503215639 25 354 1.6 6.4 0.00 0.00 0.00 37 1019.0
20260503215139 25 44 1.6 4.8 0.00 0.00 0.00 36 1019.0
20260503214640 25 12 3.2 6.4 0.00 0.00 0.00 38 1019.0
20260503214139 26 12 3.2 6.4 0.00 0.00 0.00 36 1019.0
20260503213639 25 300 1.6 3.2 0.00 0.00 0.00 37 1019.0
20260503213139 25 333 3.2 6.4 0.00 0.00 0.00 36 1019.0
20260503212639 26 2 1.6 4.8 0.00 0.00 0.00 36 1019.0
20260503212140 26 18 3.2 6.4 0.00 0.00 0.00 36 1019.0
20260503211639 25 28 0.0 3.2 0.00 0.00 0.00 35 1019.0
20260503211139 25 22 3.2 6.4 0.00 0.00 0.00 38 1019.0
20260503210639 25 343 3.2 4.8 0.00 0.00 0.00 37 1019.0
20260503210140 25 355 1.6 4.8 0.00 0.00 0.00 38 1019.0
20260503205640 25 40 4.8 8.0 0.00 0.00 0.00 37 1019.0
20260503205139 24 248 1.6 4.8 0.00 0.00 0.00 38 1020.0